EW6358 Weather Reports


time (UTC)temp
C
wind
direction
speed
KPH
gust
KPH
rain 1hr
cm
rain 24hr
cm
rain mn
cm
humidity
%
barometer
mb
20260505035508 13 110 0.0 0.0 0.00 0.00 0.00 78 1014.1
20260505035004 13 110 0.0 0.0 0.00 0.00 0.00 78 1014.2
20260505034522 13 110 0.0 0.0 0.00 0.00 0.00 78 1014.2
20260505034015 13 110 0.0 0.0 0.00 0.00 0.00 78 1014.2
20260505033508 13 110 0.0 0.0 0.00 0.00 0.00 77 1014.3
20260505033021 13 110 0.0 0.0 0.00 0.00 0.00 77 1014.3
20260505032508 13 110 0.0 0.0 0.00 0.00 0.00 77 1014.3
20260505032008 13 110 0.0 0.0 0.00 0.00 0.00 77 1014.1
20260505031531 13 110 0.0 0.0 0.00 0.00 0.00 76 1014.1
20260505031006 13 121 0.0 0.0 0.00 0.00 0.00 76 1014.1
20260505030507 13 121 0.0 0.0 0.00 0.00 0.00 76 1014.0
20260505030018 13 126 0.0 0.0 0.00 0.00 0.00 76 1014.0
20260505025507 13 126 0.0 0.0 0.00 0.00 0.00 75 1014.0
20260505025006 13 126 0.0 0.0 0.00 0.00 0.00 75 1014.0
20260505024524 14 126 0.0 0.0 0.00 0.00 0.00 76 1014.1
20260505024006 14 126 0.0 0.0 0.00 0.00 0.00 75 1014.1
20260505023506 14 126 0.0 0.0 0.00 0.00 0.00 75 1014.2
20260505023024 14 126 0.0 0.0 0.00 0.00 0.00 73 1014.2
20260505022507 15 126 0.0 0.0 0.00 0.00 0.00 73 1014.1
20260505022009 15 126 0.0 0.0 0.00 0.00 0.00 73 1014.1
20260505021526 15 126 0.0 0.0 0.00 0.00 0.00 73 1014.0
20260505021005 15 126 0.0 0.0 0.00 0.00 0.00 73 1013.9
20260505020509 15 126 0.0 0.0 0.00 0.00 0.00 72 1014.0
20260505020030 15 126 0.0 0.0 0.00 0.00 0.00 72 1013.9
20260505015504 15 126 0.0 0.0 0.00 0.00 0.00 72 1013.9
20260505015006 16 126 0.0 0.0 0.00 0.00 0.00 72 1013.8
20260505014520 16 126 0.0 0.0 0.00 0.00 0.00 71 1013.8
20260505014004 16 126 0.0 0.0 0.00 0.00 0.00 71 1013.8
20260505013507 16 126 0.0 0.0 0.00 0.00 0.00 70 1013.8
20260505013029 16 126 0.0 0.0 0.00 0.00 0.00 68 1013.7
20260505012508 16 126 0.0 0.0 0.00 0.00 0.00 66 1013.6
20260505012007 17 126 0.0 0.0 0.00 0.00 0.00 67 1013.5
20260505011534 17 126 0.0 0.0 0.00 0.00 0.00 66 1013.6
20260505011009 17 126 0.0 0.0 0.00 0.00 0.00 64 1013.6
20260505010504 17 126 0.0 0.0 0.00 0.00 0.00 62 1013.7
20260505010017 18 126 0.0 0.0 0.00 0.00 0.00 61 1013.7
20260505005505 18 126 0.0 0.0 0.00 0.00 0.00 60 1013.6
20260505005009 18 126 0.0 0.0 0.00 0.00 0.00 61 1013.7
20260505004515 19 126 0.0 0.0 0.00 0.00 0.00 58 1013.7
20260505004009 19 126 0.0 0.0 0.00 0.00 0.00 56 1013.7
20260505003507 20 126 0.0 0.0 0.00 0.00 0.00 53 1013.7
20260505003022 20 126 0.0 0.0 0.00 0.00 0.00 50 1013.8
20260505002500 21 126 0.0 0.0 0.00 0.00 0.00 49 1013.8
20260505002002 21 126 0.0 0.0 0.00 0.00 0.00 49 1013.8
20260505001508 22 126 0.0 0.0 0.00 0.00 0.00 49 1013.8
20260505001003 22 126 0.0 0.0 0.00 0.00 0.00 42 1013.6
20260505000505 22 126 0.0 3.2 0.00 0.00 0.00 45 1013.6
20260505000012 22 126 0.0 3.2 0.00 0.00 0.00 41 1013.7
20260504235506 23 97 0.0 3.2 0.00 0.00 0.00 39 1013.7
20260504235005 23 172 0.0 4.8 0.00 0.00 0.00 40 1013.6
20260504234514 23 176 0.0 4.8 0.00 0.00 0.00 38 1013.6
20260504234004 23 217 1.6 3.2 0.00 0.00 0.00 38 1013.7
20260504233507 23 217 0.0 6.4 0.00 0.00 0.00 37 1013.8
20260504233020 23 223 3.2 12.9 0.00 0.00 0.00 36 1013.8
20260504232511 23 209 6.4 12.9 0.00 0.00 0.00 35 1013.8
20260504232012 24 207 6.4 11.3 0.00 0.00 0.00 35 1013.9
20260504231504 24 205 3.2 8.0 0.00 0.00 0.00 34 1013.9
20260504231004 24 244 4.8 12.9 0.00 0.00 0.00 33 1013.9
20260504230504 24 205 4.8 9.7 0.00 0.00 0.00 34 1013.9
20260504230039 24 267 4.8 16.1 0.00 0.00 0.00 35 1013.9
20260504225504 25 211 9.7 16.1 0.00 0.00 0.00 33 1014.0
20260504225012 25 227 6.4 9.7 0.00 0.00 0.00 32 1014.0
20260504224513 25 241 4.8 9.7 0.00 0.00 0.00 33 1014.0
20260504224008 25 226 4.8 14.5 0.00 0.00 0.00 33 1014.0
20260504223504 25 234 8.0 14.5 0.00 0.00 0.00 30 1014.0
20260504223020 25 222 4.8 12.9 0.00 0.00 0.00 31 1014.0
20260504222504 25 205 8.0 11.3 0.00 0.00 0.00 30 1014.0
20260504222013 25 223 4.8 19.3 0.00 0.00 0.00 32 1014.0
20260504221538 25 236 9.7 19.3 0.00 0.00 0.00 29 1014.1
20260504221008 25 233 4.8 12.9 0.00 0.00 0.00 31 1014.1
20260504220504 25 281 4.8 12.9 0.00 0.00 0.00 29 1014.1
20260504220007 25 186 3.2 17.7 0.00 0.00 0.00 31 1014.2
20260504215512 25 186 6.4 17.7 0.00 0.00 0.00 31 1014.2
20260504215006 25 186 6.4 12.9 0.00 0.00 0.00 31 1014.2
20260504214527 25 186 6.4 12.9 0.00 0.00 0.00 30 1014.1
20260504214008 25 186 8.0 16.1 0.00 0.00 0.00 28 1014.1
20260504213513 25 186 8.0 16.1 0.00 0.00 0.00 29 1014.2
20260504213018 25 186 8.0 16.1 0.00 0.00 0.00 30 1014.2
20260504212516 25 186 3.2 12.9 0.00 0.00 0.00 28 1014.2
20260504212009 25 186 6.4 14.5 0.00 0.00 0.00 28 1014.3
20260504211520 25 186 6.4 17.7 0.00 0.00 0.00 29 1014.3
20260504211010 25 186 9.7 17.7 0.00 0.00 0.00 29 1014.3
20260504210509 25 186 6.4 16.1 0.00 0.00 0.00 29 1014.3
20260504210030 25 186 8.0 16.1 0.00 0.00 0.00 31 1014.3
20260504205510 25 186 9.7 16.1 0.00 0.00 0.00 30 1014.3
20260504205010 25 186 8.0 12.9 0.00 0.00 0.00 30 1014.3
20260504204529 25 186 4.8 16.1 0.00 0.00 0.00 28 1014.4
20260504204003 25 186 6.4 19.3 0.00 0.00 0.00 28 1014.4
20260504203512 25 186 6.4 19.3 0.00 0.00 0.00 31 1014.3
20260504203042 25 186 6.4 16.1 0.00 0.00 0.00 30 1014.5
20260504202504 25 186 9.7 16.1 0.00 0.00 0.00 29 1014.6
20260504202007 25 186 4.8 14.5 0.00 0.00 0.00 30 1014.5
20260504201528 25 186 8.0 14.5 0.00 0.00 0.00 31 1014.7
20260504201011 25 186 4.8 14.5 0.00 0.00 0.00 33 1014.7
20260504200518 25 186 3.2 14.5 0.00 0.00 0.00 33 1014.9
20260504200024 25 186 4.8 12.9 0.00 0.00 0.00 33 1014.9
20260504195507 25 186 8.0 12.9 0.00 0.00 0.00 31 1015.0
20260504195010 25 186 8.0 12.9 0.00 0.00 0.00 31 1015.0
20260504194537 25 186 4.8 12.9 0.00 0.00 0.00 31 1015.2
20260504194008 25 186 4.8 12.9 0.00 0.00 0.00 30 1015.2
20260504193504 25 186 8.0 12.9 0.00 0.00 0.00 31 1015.2
20260504193028 24 186 4.8 12.9 0.00 0.00 0.00 32 1015.2
20260504192505 24 186 6.4 12.9 0.00 0.00 0.00 30 1015.4
20260504192012 24 186 3.2 9.7 0.00 0.00 0.00 33 1015.4
20260504191532 24 186 3.2 16.1 0.00 0.00 0.00 31 1015.4
20260504191007 24 186 4.8 16.1 0.00 0.00 0.00 33 1015.5
20260504190507 24 186 9.7 14.5 0.00 0.00 0.00 34 1015.5
20260504190030 24 186 0.0 11.3 0.00 0.00 0.00 31 1015.7
20260504185509 24 186 8.0 16.1 0.00 0.00 0.00 35 1015.8
20260504185012 24 186 6.4 16.1 0.00 0.00 0.00 34 1015.8
20260504184527 24 186 9.7 16.1 0.00 0.00 0.00 34 1015.8
20260504184009 24 186 0.0 12.9 0.00 0.00 0.00 32 1015.9
20260504183511 24 186 8.0 17.7 0.00 0.00 0.00 36 1015.9
20260504183012 23 186 4.8 17.7 0.00 0.00 0.00 33 1016.0
20260504182503 23 186 6.4 11.3 0.00 0.00 0.00 37 1016.0
20260504182003 23 186 3.2 9.7 0.00 0.00 0.00 34 1016.0
20260504181510 23 186 4.8 12.9 0.00 0.00 0.00 34 1016.0
20260504181000 23 186 8.0 12.9 0.00 0.00 0.00 34 1016.2
20260504180500 23 186 0.0 8.0 0.00 0.00 0.00 38 1016.3
20260504180005 23 186 3.2 8.0 0.00 0.00 0.00 35 1016.3
20260504175504 23 186 3.2 8.0 0.00 0.00 0.00 35 1016.3
20260504175003 23 186 3.2 11.3 0.00 0.00 0.00 35 1016.4
20260504174505 23 186 3.2 11.3 0.00 0.00 0.00 35 1016.4
20260504174003 23 186 6.4 12.9 0.00 0.00 0.00 39 1016.4
20260504173504 23 186 4.8 12.9 0.00 0.00 0.00 38 1016.4
20260504173015 23 186 4.8 9.7 0.00 0.00 0.00 36 1016.5
20260504172503 22 186 1.6 9.7 0.00 0.00 0.00 39 1016.5
20260504172004 22 186 3.2 12.9 0.00 0.00 0.00 38 1016.6
20260504171521 22 186 6.4 12.9 0.00 0.00 0.00 39 1016.8
20260504171004 22 186 3.2 11.3 0.00 0.00 0.00 39 1016.8
20260504170509 22 186 3.2 11.3 0.00 0.00 0.00 39 1016.9
20260504151005 20 186 8.0 14.5 0.00 0.00 0.00 48 1017.6
20260504150506 20 186 8.0 12.9 0.00 0.00 0.00 53 1017.5
20260504141018 18 186 6.4 11.3 0.00 0.00 0.00 54 1017.9
20260504140503 17 186 6.4 11.3 0.00 0.00 0.00 52 1017.9
20260504130512 12 186 0.0 3.2 0.00 0.00 0.00 80 1018.0
20260504110513 -17 0.0 0.0 0.00 0.00 0.00 1017.3
20260504100511 -17 0.0 0.0 0.00 0.00 0.00 1017.2
20260504081530 -17 0.0 0.0 0.00 0.00 0.00 1017.4
20260504081015 -17 0.0 0.0 0.00 0.00 0.00 1017.4
20260504080510 -17 0.0 0.0 0.00 0.00 0.00 1017.4
20260504050517 -17 0.0 0.0 0.00 0.00 0.00 1018.5
20260504045510 -17 0.0 0.0 0.00 0.00 0.00 1018.6
20260504045016 -17 0.0 0.0 0.00 0.00 0.00 1018.6
20260504044532 -17 0.0 0.0 0.00 0.00 0.00 1018.6
20260504044011 -17 0.0 0.0 0.00 0.00 0.00 1018.6
20260504043510 -17 0.0 0.0 0.00 0.00 0.00 1018.6
20260504043035 -17 0.0 0.0 0.00 0.00 0.00 1018.6
20260504042512 -17 0.0 0.0 0.00 0.00 0.00 1018.6
20260504042013 -17 0.0 0.0 0.00 0.00 0.00 1018.8
20260504041531 -17 0.0 0.0 0.00 0.00 0.00 1018.9
20260504041010 -17 0.0 0.0 0.00 0.00 0.00 1018.9
20260504040511 -17 0.0 0.0 0.00 0.00 0.00 1019.0
20260504040056 -17 0.0 0.0 0.00 0.00 0.00 1019.0